Погода в Икабье

Россия / Забайкальский край     56°59′49″N   118°46′10″E
темп.,
°C
ветер,
м/с
пор.,
м/с
влажн.,
%
обл.,
%
осадки,
мм/ч
давл.,
гПа
погр.,
м
7 мая, пт
пт700:000всв337876 0.0 100963
03:00−1в2283100 0.0 100913
06:00−1всв238379 0.0 1010118
09:00+2в227139 0.0 1010469
12:00+1в117099 0.3 1009573
15:00+5всв345484 1.1 10081153
18:00+4всв5556100 0.5 10101001
21:00+1в3481100 0.7 101278
8 мая, сб
сб800:000в2388100 0.1 1013102
03:00−1в2395100 0.4 1013162
06:00−1вюв2392100 0.5 1014198
09:00+2всв237298 0.8 1013582
12:00+4всв5651100 0.4 10121613
15:00+5св674997 0.6 10111715
18:00+4всв675149 0.2 10121484
21:00+1всв456797 0.3 1014101
9 мая, вс
вс900:000всв227799 0.0 101458
03:00−1в2284100 0.1 101436
06:00−1всв239287 0.1 1015206
09:00+1всв2373100 0.2 1014653
12:00+5всв555391 0.1 10121477
15:00+6всв5649100 0.3 10111547
18:00+5всв6654100 0.1 10121284
21:00+3всв4670100 0.1 1014359
10 мая, пн
пн1000:00+2всв3482100 0.0 1015294
03:000всв2296100 0.1 1016126
06:000всв229697 0.1 1016118
09:00+2всв227782 0.2 1015622
12:00+6св235769 0.1 10141248
15:00+7всв324784 0.1 10131528
18:00+8всв544747 0.1 10121363
21:00+4св56685 0.1 1014148
11 мая, вт
вт1100:00+2всв34775 0.0 101579
03:00+1всв33785 0.0 101531
06:00+1всв227611 0.0 101546
09:00+4ссв116110 0.0 1013707
12:00+7сз115072 0.0 10111356
15:00+10св214090 0.1 10091987
18:00+9всв55457 0.1 10101444
21:00+6св576012 0.1 1011216